Location: Roland
(31.1349°N, 85.4372°W)
Time: 15:35:37
(UTC+00:00)

Transit 2A - Pass Details

Date: 21 April 2021
Orbit: 602 x 957 km, 66.7° (Epoch: 16 May)

Event Time Altitude Azimuth Distance (km) Brightness Sun altitude
Rises 10:29:05 0° 156° (SSE) 3,194 9.3 -8.6°
Reaches altitude 10° 10:33:29 10° 121° (ESE) 2,175 9.0 -7.7°
Maximum altitude 10:34:45 11° 106° (ESE) 2,086 9.2 -7.4°
Drops below altitude 10° 10:35:59 10° 91° (E) 2,124 9.7 -7.2°
Sets 10:40:04 0° 55° (NE) 2,963 10.8 -6.3°
